| time (UTC) | temp F | wind direction | speed knots | gust knots | rain 1hr in | rain 24hr in | rain mn in | humidity % | barometer mb |
| 20260509233021 | 62 | 215 | 0.9 | 0.9 | 0.00 | 0.20 | 0.20 | 78 | 1011.7 |
| 20260509230019 | 63 | 216 | 1.7 | 1.7 | 0.00 | 0.20 | 0.20 | 76 | 1012.1 |
| 20260509223015 | 64 | 210 | 0.0 | 0.0 | 0.00 | 0.20 | 0.20 | 72 | 1012.1 |
| 20260509220014 | 64 | 144 | 0.9 | 0.9 | 0.00 | 0.20 | 0.20 | 74 | 1012.1 |
| 20260509213011 | 63 | 223 | 0.0 | 0.0 | 0.00 | 0.20 | 0.20 | 77 | 1012.1 |
| 20260509210008 | 61 | 209 | 0.0 | 0.0 | 0.00 | 0.20 | 0.20 | 78 | 1012.5 |
| 20260509203003 | 60 | 228 | 0.0 | 0.0 | 0.00 | 0.20 | 0.20 | 78 | 1012.9 |
| 20260509200000 | 59 | 183 | 1.7 | 1.7 | 0.00 | 0.20 | 0.20 | 80 | 1012.9 |
| 20260509192956 | 58 | 235 | 0.0 | 0.0 | 0.00 | 0.20 | 0.20 | 80 | 1013.2 |
| 20260509185952 | 58 | 336 | 1.7 | 1.7 | 0.00 | 0.20 | 0.20 | 83 | 1012.9 |
| 20260509182949 | 59 | 272 | 1.7 | 1.7 | 0.00 | 0.20 | 0.20 | 81 | 1013.2 |
| 20260509175948 | 57 | 181 | 1.7 | 1.7 | 0.00 | 0.20 | 0.20 | 86 | 1013.5 |
| 20260509172947 | 57 | 222 | 0.0 | 0.0 | 0.00 | 0.20 | 0.20 | 86 | 1013.9 |
| 20260509165948 | 56 | 204 | 1.7 | 1.7 | 0.00 | 0.20 | 0.20 | 87 | 1014.5 |
| 20260509162943 | 55 | 204 | 2.6 | 2.6 | 0.00 | 0.20 | 0.20 | 91 | 1014.2 |
| 20260509155938 | 55 | 132 | 1.7 | 1.7 | 0.01 | 0.20 | 0.20 | 90 | 1013.9 |
| 20260509152936 | 54 | 187 | 0.0 | 0.0 | 0.01 | 0.20 | 0.20 | 95 | 1013.9 |
| 20260509145936 | 52 | 233 | 0.0 | 0.0 | 0.09 | 0.19 | 0.19 | 94 | 1014.5 |
| 20260509142931 | 51 | 90 | 0.0 | 0.0 | 0.07 | 0.17 | 0.17 | 95 | 1014.9 |
| 20260509135930 | 51 | 214 | 0.0 | 0.0 | 0.07 | 0.10 | 0.10 | 93 | 1014.9 |
| 20260509132925 | 51 | 169 | 0.0 | 0.0 | 0.01 | 0.04 | 0.04 | 91 | 1014.5 |
| 20260509125924 | 50 | 132 | 1.7 | 1.7 | 0.02 | 0.02 | 0.02 | 92 | 1014.5 |
| 20260509122921 | 50 | 238 | 0.0 | 0.0 | 0.01 | 0.01 | 0.01 | 92 | 1014.9 |
| 20260509115917 | 50 | 136 | 0.0 | 0.0 | 0.00 | 0.00 | 0.00 | 93 | 1014.5 |
| 20260509112915 | 49 | 162 | 0.0 | 0.0 | 0.00 | 0.00 | 0.00 | 91 | 1014.5 |
| 20260509105915 | 49 | 325 | 0.0 | 0.0 | 0.00 | 0.00 | 0.00 | 90 | 1014.5 |
| 20260509102912 | 49 | 210 | 0.0 | 0.0 | 0.00 | 0.00 | 0.00 | 87 | 1013.9 |
| 20260509095910 | 49 | 290 | 0.0 | 0.0 | 0.00 | 0.00 | 0.00 | 87 | 1013.5 |
| 20260509092906 | 50 | 182 | 0.0 | 0.0 | 0.00 | 0.00 | 0.00 | 85 | 1013.9 |
| 20260509085901 | 50 | 150 | 0.0 | 0.0 | 0.00 | 0.00 | 0.00 | 84 | 1013.9 |
| 20260509082859 | 49 | 150 | 0.0 | 0.0 | 0.00 | 0.00 | 0.00 | 84 | 1013.9 |
| 20260509075856 | 50 | 150 | 0.0 | 0.0 | 0.00 | 0.00 | 0.00 | 84 | 1014.2 |
| 20260509072854 | 50 | 168 | 0.0 | 0.0 | 0.00 | 0.00 | 0.00 | 84 | 1013.9 |
| 20260509065852 | 51 | 138 | 0.0 | 0.0 | 0.00 | 0.00 | 0.00 | 83 | 1013.9 |
| 20260509062850 | 52 | 215 | 0.0 | 0.0 | 0.00 | 0.00 | 0.00 | 77 | 1014.2 |
| 20260509055848 | 53 | 19 | 1.7 | 1.7 | 0.00 | 0.00 | 0.00 | 73 | 1014.5 |
| 20260509052848 | 51 | 30 | 0.0 | 0.0 | 0.00 | 0.00 | 0.00 | 84 | 1014.5 |
| 20260509045848 | 52 | 214 | 0.0 | 0.0 | 0.00 | 0.00 | 0.00 | 82 | 1014.5 |
| 20260509042846 | 52 | 138 | 0.9 | 0.9 | 0.00 | 0.00 | 0.00 | 79 | 1014.5 |
| 20260509035846 | 52 | 318 | 0.0 | 0.0 | 0.00 | 0.00 | 0.00 | 82 | 1014.9 |
| 20260509032846 | 52 | 150 | 0.9 | 0.9 | 0.00 | 0.00 | 0.00 | 80 | 1014.9 |
| 20260509025842 | 52 | 156 | 0.0 | 0.0 | 0.00 | 0.00 | 0.00 | 81 | 1015.2 |
| 20260509022838 | 52 | 198 | 0.0 | 0.0 | 0.00 | 0.00 | 0.00 | 77 | 1015.2 |
| 20260509015834 | 53 | 168 | 0.0 | 0.0 | 0.00 | 0.00 | 0.00 | 75 | 1014.9 |
| 20260509012832 | 54 | 176 | 0.0 | 0.0 | 0.00 | 0.00 | 0.00 | 76 | 1014.9 |
| 20260509005827 | 55 | 200 | 0.0 | 0.0 | 0.00 | 0.00 | 0.00 | 73 | 1014.5 |
| 20260509002826 | 56 | 156 | 0.9 | 0.9 | 0.00 | 0.00 | 0.00 | 69 | 1014.9 |
| 20260508235825 | 57 | 131 | 1.7 | 1.7 | 0.00 | 0.00 | 0.00 | 65 | 1014.5 |